Weather History for KREO - July, 2013

Change the Weather History Date:

Monday, July 22, 2013

  Actual Average Record
Temperature  
Mean Temperature 78 °F 73 °F  
Max Temperature 102 °F 93 °F - ()
Min Temperature 54 °F 53 °F - ()
Degree Days  
Heating Degree Days 0 0  
Month to date heating degree days 0 11  
Since 1 June heating degree days 94 136  
Since 1 July heating degree days 0 11  
Cooling Degree Days 13 8  
Month to date cooling degree days 282 147  
Year to date cooling degree days 440 219  
Since 1 June cooling degree days 418 209  
Growing Degree Days 28 (Base 50)    
Moisture  
Dew Point 13 °F    
Average Humidity 11    
Maximum Humidity 18    
Minimum Humidity 3    
Precipitation  
Precipitation 0.00 in 0.02 in - ()
Month to date precipitation 0.41 0.26  
Year to date precipitation 3.03 5.88  
Sea Level Pressure  
Sea Level Pressure 29.85 in    
Wind  
Wind Speed 6 mph (NNE)    
Max Wind Speed 18 mph    
Max Gust Speed 28 mph    
T = Trace of Precipitation, MM = Missing Value Source: NWS Daily Summary

Daily Weather History Graph

Daily Weather History Graph

Search for Another Location

Airport or City:

Trip Planner

Search our weather history database for the weather conditions in past years. The results will help you decide how hot, cold, wet, or windy it might be!

Date:

Astronomy

Jul. 22, 2013 Rise Set
Actual Time 5:33 AM PDT 8:21 PM PDT
Civil Twilight 5:00 AM PDT 8:54 PM PDT
Nautical Twilight 4:19 AM PDT 9:35 PM PDT
Astronomical Twilight 3:30 AM PDT 10:23 PM PDT
Moon 8:08 PM PDT (7/22) 5:37 AM PDT (7/22)
Length of Visible Light 15h 53m
Length of Day
14h 47m
Full, 100% of the Moon is Illuminated
Jul 22
Full
Jul 29
Last Quarter
Aug 6
New
Aug 14
First Quarter
Aug 20
Full

Hourly Weather History & Observations

Time (PDT) Temp. Dew Point Humidity Pressure Visibility Wind Dir Wind Speed Gust Speed Precip Events Conditions
12:52 AM 61.0 °F 12.0 °F 15% 29.81 in - Calm Calm - N/A   Unknown
1:52 AM 59.0 °F 10.0 °F 14% 29.81 in - SSE 6.9 mph - N/A   Unknown
2:52 AM 61.0 °F 12.0 °F 15% 29.82 in - SSE 8.1 mph - N/A   Unknown
3:52 AM 57.0 °F 10.9 °F 16% 29.83 in - Calm Calm - N/A   Unknown
4:52 AM 55.9 °F 12.9 °F 18% 29.85 in - Calm Calm - N/A   Unknown
5:52 AM 57.9 °F 14.0 °F 18% 29.86 in - SE 9.2 mph - N/A   Unknown
6:52 AM 68.0 °F 17.1 °F 14% 29.86 in - SSE 3.5 mph - N/A   Unknown
7:52 AM 73.9 °F 16.0 °F 11% 29.88 in - Calm Calm - N/A   Unknown
8:52 AM 80.1 °F 15.1 °F 9% 29.89 in - Calm Calm - N/A   Unknown
9:52 AM 84.9 °F 14.0 °F 7% 29.88 in - Calm Calm - N/A   Unknown
10:52 AM 90.0 °F 12.9 °F 6% 29.89 in - North 8.1 mph - N/A   Unknown
11:52 AM 91.9 °F 12.9 °F 5% 29.89 in - SSW 3.5 mph - N/A   Unknown
12:52 PM 95.0 °F 17.1 °F 6% 29.88 in - Variable 4.6 mph - N/A   Unknown
1:52 PM 98.1 °F 21.9 °F 7% 29.86 in - WSW 12.7 mph 27.6 mph N/A   Unknown
2:52 PM 98.1 °F 19.0 °F 6% 29.84 in - North 10.4 mph - N/A   Unknown
3:52 PM 99.0 °F 19.9 °F 6% 29.83 in - SW 11.5 mph 21.9 mph N/A   Unknown
4:52 PM 100.0 °F 19.0 °F 5% 29.82 in - Variable 5.8 mph - N/A   Unknown
5:52 PM 98.1 °F 19.0 °F 6% 29.81 in - Calm Calm - N/A   Unknown
6:52 PM 97.0 °F 18.0 °F 6% 29.79 in - WNW 6.9 mph - N/A   Unknown
7:52 PM 91.9 °F 1.9 °F 4% 29.80 in - NNW 12.7 mph 21.9 mph N/A   Unknown
8:52 PM 87.1 °F -4.0 °F 4% 29.82 in - NNE 8.1 mph - N/A   Unknown
9:52 PM 79.0 °F -0.9 °F 4% 29.87 in - North 9.2 mph - N/A   Unknown
10:52 PM 71.1 °F 6.1 °F 8% 29.89 in - NNE 8.1 mph - N/A   Unknown
11:52 PM 64.9 °F 9.0 °F 11% 29.91 in - ENE 6.9 mph - N/A   Unknown